Weather History for Point Salines, Grenada

Change the Weather History Date:

Saturday, March 24, 2012

  Actual Average Record
Temperature  
Mean Temperature 80 °F -  
Max Temperature 85 °F 84 °F 86 °F (1997)
Min Temperature 75 °F 76 °F 72 °F (2014)
Cooling Degree Days 15    
Growing Degree Days 30 (Base 50)    
Moisture  
Dew Point 75 °F    
Average Humidity 84    
Maximum Humidity 94    
Minimum Humidity 66    
Precipitation  
Precipitation 0.00 in - - ()
Sea Level Pressure  
Sea Level Pressure 29.90 in    
Wind  
Wind Speed 6 mph ()    
Max Wind Speed 17 mph    
Max Gust Speed -    
Visibility 5.2 miles    
Events Rain    
Averages and records for this station are not official NWS values.
T = Trace of Precipitation, MM = Missing Value Source: Averaged Metar Reports

Daily Weather History Graph

Daily Weather History Graph

Search for Another Location

Airport:

Trip Planner

Search our weather history database for the weather conditions in past years. The results will help you decide how hot, cold, wet, or windy it might be!

Date:

Astronomy

Mar. 24, 2012 Rise Set
Actual Time 6:08 AM AST 6:18 PM AST
Civil Twilight 5:47 AM AST 6:39 PM AST
Nautical Twilight 5:22 AM AST 7:03 PM AST
Astronomical Twilight 4:58 AM AST 7:28 PM AST
Moon 7:13 AM AST (3/24) 7:59 PM AST (3/24)
Length of Visible Light 12h 51m
Length of Day
12h 09m
Waxing Crescent, 4% of the Moon is Illuminated
Mar 24
Waxing Crescent
Mar 30
First Quarter
Apr 6
Full
Apr 13
Last Quarter
Apr 21
New

Hourly Weather History & Observations

Time (AST) Temp. Heat Index Dew Point Humidity Pressure Visibility Wind Dir Wind Speed Gust Speed Precip Events Conditions
12:00 AM 78.8 °F - 73.4 °F 83% 29.89 in 6.2 mi Calm Calm - N/A   Mostly Cloudy
1:00 AM 78.8 °F - 75.2 °F 89% 29.89 in 6.2 mi Calm Calm - N/A   Mostly Cloudy
2:00 AM 78 °F - 75 °F 86% 29.88 in 5 mi Calm Calm - -   Widespread Dust
2:00 AM 78.8 °F - 75.2 °F 89% 29.86 in 5.0 mi Calm Calm - N/A   Mostly Cloudy
3:00 AM 78.8 °F - 75.2 °F 89% 29.86 in 5.0 mi Variable 3.5 mph - N/A   Mostly Cloudy
4:00 AM 78.8 °F - 75.2 °F 89% 29.86 in 4.3 mi East 5.8 mph - N/A   Mostly Cloudy
5:00 AM 78 °F - 75 °F 87% 29.88 in 6 mi East 5.8 mph - -   Widespread Dust
5:00 AM 78.8 °F - 75.2 °F 89% 29.86 in 5.6 mi East 5.8 mph - N/A   Mostly Cloudy
6:00 AM 77.0 °F - 75.2 °F 94% 29.89 in 6.2 mi East 6.9 mph - N/A   Scattered Clouds
7:00 AM 78.8 °F - 75.2 °F 89% 29.89 in 6.2 mi East 4.6 mph - N/A   Mostly Cloudy
8:00 AM 80 °F - 74 °F 77% 29.94 in 5 mi East 5.8 mph - -   Widespread Dust
8:00 AM 80.6 °F 85.4 °F 73.4 °F 79% 29.92 in 5.0 mi East 9.2 mph - N/A   Haze
9:00 AM 82.4 °F 89.5 °F 75.2 °F 79% 29.95 in 5.0 mi East 6.9 mph - N/A   Haze
10:00 AM 82.4 °F 90.9 °F 77.0 °F 84% 29.95 in 5.6 mi East 11.5 mph - N/A   Mostly Cloudy
11:00 AM 85 °F - 75 °F 66% 29.96 in 5 mi East 12.7 mph - -   Scattered Clouds
11:00 AM 84.2 °F 92.3 °F 75.2 °F 74% 29.95 in 5.0 mi East 12.7 mph - N/A   Haze
12:00 PM 84.2 °F 94.1 °F 77.0 °F 79% 29.92 in 5.0 mi ESE 11.5 mph - N/A Rain Light Rain Showers
1:00 PM 82.4 °F 92.4 °F 78.8 °F 89% 29.92 in 5.0 mi ESE 15.0 mph - N/A   Partly Cloudy
2:00 PM 83 °F - 77 °F 77% 29.91 in 5 mi SE 16.1 mph - -   Scattered Clouds
2:00 PM 82.4 °F 90.9 °F 77.0 °F 84% 29.89 in 5.0 mi SE 16.1 mph - N/A   Partly Cloudy
3:00 PM 82.4 °F 90.9 °F 77.0 °F 84% 29.86 in 5.0 mi ESE 15.0 mph - N/A   Partly Cloudy
4:00 PM 82.4 °F 89.5 °F 75.2 °F 79% 29.86 in 5.0 mi ESE 17.3 mph - N/A   Partly Cloudy
5:00 PM 82 °F - 76 °F 76% 29.86 in 5 mi ESE 15.0 mph - -   Widespread Dust
5:00 PM 82.4 °F 89.5 °F 75.2 °F 79% 29.86 in 5.0 mi ESE 15.0 mph - N/A   Partly Cloudy
6:00 PM 80.6 °F 86.2 °F 75.2 °F 84% 29.86 in 5.0 mi ESE 11.5 mph - N/A   Partly Cloudy
7:00 PM 78.8 °F - 73.4 °F 83% 29.89 in 5.0 mi East 5.8 mph - N/A   Partly Cloudy
8:00 PM 80 °F - 75 °F 82% 29.91 in 5 mi East 6.9 mph - -   Widespread Dust
8:00 PM 78.8 °F - 75.2 °F 89% 29.92 in 5.0 mi East 6.9 mph - N/A   Partly Cloudy
9:00 PM 78.8 °F - 75.2 °F 89% 29.92 in 5.0 mi East 9.2 mph - N/A   Partly Cloudy
10:00 PM 78.8 °F - 75.2 °F 89% 29.95 in 5.0 mi East 8.1 mph - N/A   Partly Cloudy
11:00 PM 79 °F - 75 °F 84% 29.95 in 5 mi East 5.8 mph - -   Widespread Dust
11:00 PM 78.8 °F - 75.2 °F 89% 29.95 in 6.2 mi East 5.8 mph - N/A   Partly Cloudy